Messwerte Unalaska

Aktuellste Messwerte

Wettercharakter
Wetter: klar
Wind
15 km/hWindrichtung: Südwest
Luftdruck
1015 hPa
Messzeit: 10. April 2021, 3.00Datenquelle: METAR

Weitere Messstationen in der Nähe

Messstation Temperatur Entfernung
Cold Bay 5 °C 286 km
King Cove 4 °C 306 km
St. George 3 °C 358 km
Nelson Lagoon 4 °C 415 km
Sand Point 4 °C 418 km

Wind

Windrichtung Böen Mittelwind
° km/h km/h
1617966000 3.00 2.00 - 3.00 180° 10
1617969600 4.00 3.00 - 4.00 140° 35 20
1617973200 5.00 4.00 - 5.00 130° 35 25
1617976800 6.00 5.00 - 6.00 150° 30 20
1617980400 7.00 6.00 - 7.00
1617984000 8.00 7.00 - 8.00 150° 40 20
1617987600 9.00 8.00 - 9.00 130° 30 20
1617991200 10.00 9.00 - 10.00 190° 10
1617994800 11.00 10.00 - 11.00 160° 30 20
1617998400 12.00 11.00 - 12.00 190° 20
1618002000 13.00 12.00 - 13.00 180° 20
1618005600 14.00 13.00 - 14.00 160° 35 25
1618009200 15.00 14.00 - 15.00 170° 35 25
1618012800 16.00 15.00 - 16.00 160° 30 20
1618016400 17.00 16.00 - 17.00 180° 20
1618020000 18.00 17.00 - 18.00 160° 30 20
1618023600 19.00 18.00 - 19.00 190° 55 35
1618027200 20.00 19.00 - 20.00 220° 30 20
1618030800 21.00 20.00 - 21.00 5
1618034400 22.00 21.00 - 22.00
1618038000 23.00 22.00 - 23.00 220° 50 25
1618041600 0.00 23.00 - 0.00 180° 30
1618045200 1.00 0.00 - 1.00 120° 30 10
1618048800 2.00 1.00 - 2.00 0

Ihre Wetterstation

Fehlt Ihre Wetterstation auf unserem Portal?

Schreiben Sie an network@meteonews.ch